User: anonymous   Login
Location: ????????
(54.9045°N, 39.1041°E)
Time: 12:59:17
(UTC+00:00)
Language:

ALOS - Orbit

View from above orbital plane
View from above orbital plane
View from above satellite
View from above satellite

Ground track
Ground track

The orbit data is extracted from the following two-line orbital elements,

1 28931U 06002A   24175.84661954  .00001819  00000-0  34166-3 0  9995
2 28931  98.0371 128.7626 0002457  99.1005 261.0477 14.65860274981959
Epoch (UTC): 23 June 2024 20:19:07
Eccentricity: 0.0002457
inclination: 98.0371°
perigee height: 672 km
apogee height: 676 km
right ascension of ascending node: 128.7626°
argument of perigee: 99.1005°
revolutions per day: 14.65860274
mean anomaly at epoch: 261.0477°
orbit number at epoch: 98195

The dashed part of the orbit path shows where the satellite is in the earth's shadow,  

DLR